Location: Unspecified
(49.2170°N, 0.0000°E)
Time: 02:32:57
(UTC+00:00)

Transit 2A - Visible Passes

Search period start: 17 June 2019 00:00
Search period end: 27 June 2019 00:00
Orbit: 593 x 966 km, 66.7° (Epoch: 16 June)

Date Brightness Start Highest point End Pass type
(mag) Time Alt. Az. Time Alt. Az. Time Alt. Az.
17 Jun 6.6 01:35:41 20° SSW 01:40:08 66° ESE 01:46:23 10° NE visible
18 Jun 6.9 01:02:21 23° S 01:06:06 50° ESE 01:12:09 10° NE visible
18 Jun 7.3 02:43:26 10° WSW 02:49:32 45° NW 02:55:29 10° NNE visible
19 Jun 7.3 00:28:59 23° SSE 00:32:07 38° ESE 00:37:51 10° NE visible
19 Jun 6.9 02:09:28 12° SW 02:15:16 56° NW 02:21:24 10° NNE visible
19 Jun 7.6 23:55:34 21° SE 23:58:12 28° ESE 00:03:26 10° NE visible
20 Jun 6.6 01:36:02 17° SW 01:41:04 71° NW 01:47:18 10° NNE visible
20 Jun 7.9 23:22:06 17° SE 23:24:19 21° ESE 23:28:50 10° ENE visible
21 Jun 6.4 01:02:35 22° SW 01:06:54 90° SSE 01:13:11 10° NE visible
21 Jun 8.0 02:45:30 10° W 02:50:56 29° NW 02:56:13 10° NNE visible
21 Jun 8.2 22:48:36 13° ESE 22:50:30 15° ESE 22:53:52 10° ENE visible
22 Jun 6.5 00:29:03 26° SSW 00:32:48 70° ESE 00:39:02 10° NE visible
22 Jun 7.7 02:10:48 10° WSW 02:16:34 35° NW 02:22:09 10° NNE visible
22 Jun 8.4 22:16:08 10° ESE 22:16:44 10° E 22:17:20 10° E visible
22 Jun 6.7 23:55:29 27° S 23:58:45 53° ESE 00:04:49 10° NE visible
23 Jun 7.4 01:36:12 10° WSW 01:42:14 42° NW 01:48:05 10° NNE visible
23 Jun 7.0 23:21:50 26° SSE 23:24:45 40° ESE 23:30:32 10° NE visible
24 Jun 7.1 01:02:17 13° WSW 01:07:58 53° NW 01:14:01 10° NNE visible
24 Jun 8.5 02:48:01 10° WNW 02:52:35 20° NNW 02:57:00 10° NNE visible
24 Jun 7.4 22:48:07 22° SSE 22:50:49 30° ESE 22:56:09 10° NE visible
25 Jun 6.7 00:28:34 16° SW 00:33:45 67° NW 00:39:56 10° NNE visible
25 Jun 8.4 02:13:08 10° W 02:18:06 23° NNW 02:22:54 10° NNE visible
25 Jun 7.7 22:14:18 17° SE 22:16:56 22° ESE 22:21:36 10° ENE visible
25 Jun 6.5 23:54:44 19° SW 23:59:34 86° NW 00:05:49 10° NE visible
26 Jun 8.1 01:38:19 10° W 01:43:40 28° NNW 01:48:48 10° NNE visible
26 Jun 8.0 21:40:23 13° SE 21:43:05 16° ESE 21:46:43 10° ENE visible
26 Jun 6.4 23:20:49 20° SSW 23:25:27 74° ESE 23:31:40 10° NE visible
